When you browse on this site, cookies collect data to enhance your experience and personalize the content and advertising you see.
Visit our Privacy Policy to learn more. By continuing to use the site, you agree to this use of cookies and data.
  • In Hungary
  • List of Countries
  • For 7 days
  • Water Temperature
  • Satellite Maps
  • Weather Map
  • News
  • Weather Widgets
  • user-avatar
    Login

    Hourly Weather Nowogrod

    Today, 16 November, Friday

    Time Temperature Precipitation Wind Pressure Humidity
    00:00 +3°C° 0 mm 2 mps 766 mmHg 87%
    01:00 +2°C° 0 mm 2 mps 767 mmHg 89%
    02:00 +2°C° 0 mm 2 mps 767 mmHg 90%
    03:00 +1°C° 0 mm 2 mps 767 mmHg 90%
    04:00 +1°C° 0 mm 2 mps 768 mmHg 91%
    05:00 +1°C° 0 mm 2 mps 768 mmHg 91%
    06:00 +1°C° 0 mm 2 mps 768 mmHg 92%
    07:00 -1°C° 0 mm 2 mps 768 mmHg 93%
    08:00 +1°C° 0 mm 2 mps 769 mmHg 88%
    09:00 +2°C° 0 mm 2 mps 769 mmHg 83%
    10:00 +2°C° 0 mm 3 mps 769 mmHg 79%
    11:00 +3°C° 0 mm 3 mps 769 mmHg 76%
    12:00 +4°C° 0 mm 3 mps 769 mmHg 74%
    13:00 +4°C° 0 mm 3 mps 769 mmHg 72%
    14:00 +3°C° 0 mm 3 mps 769 mmHg 76%
    15:00 +4°C° 0 mm 2 mps 769 mmHg 80%
    16:00 +3°C° 0 mm 2 mps 769 mmHg 85%
    17:00 +2°C° 0 mm 2 mps 770 mmHg 87%
    18:00 +2°C° 0 mm 2 mps 770 mmHg 89%
    19:00 +2°C° 0 mm 2 mps 770 mmHg 91%
    20:00 +1°C° 0 mm 2 mps 770 mmHg 92%
    21:00 +1°C° 0 mm 2 mps 770 mmHg 92%
    22:00 +1°C° 0 mm 2 mps 770 mmHg 92%
    23:00 +1°C° 0 mm 2 mps 770 mmHg 91%

    Tomorrow, 17 November, Saturday

    Time Temperature Precipitation Wind Pressure Humidity
    00:00 -1°C° 0 mm 2 mps 770 mmHg 90%
    01:00 -1°C° 0 mm 2 mps 770 mmHg 89%
    02:00 -1°C° 0 mm 2 mps 770 mmHg 85%
    03:00 -1°C° 0 mm 2 mps 770 mmHg 82%
    04:00 -1°C° 0 mm 2 mps 770 mmHg 79%
    05:00 -2°C° 0 mm 2 mps 770 mmHg 75%
    06:00 -2°C° 0 mm 2 mps 770 mmHg 72%
    07:00 -2°C° 0 mm 2 mps 770 mmHg 68%
    08:00 -1°C° 0 mm 2 mps 770 mmHg 61%
    09:00 +2°C° 0 mm 2 mps 770 mmHg 54%
    10:00 +3°C° 0 mm 2 mps 770 mmHg 46%
    11:00 +3°C° 0 mm 2 mps 770 mmHg 43%
    12:00 +4°C° 0 mm 2 mps 769 mmHg 41%
    13:00 +6°C° 0 mm 1 mps 769 mmHg 38%
    14:00 +5°C° 0 mm 1 mps 769 mmHg 42%
    15:00 +4°C° 0 mm 1 mps 768 mmHg 45%
    16:00 +3°C° 0 mm 1 mps 768 mmHg 49%
    17:00 +3°C° 0 mm 1 mps 768 mmHg 50%
    18:00 +2°C° 0 mm 1 mps 768 mmHg 50%
    19:00 +2°C° 0 mm 1 mps 767 mmHg 51%
    20:00 +2°C° 0 mm 1 mps 767 mmHg 51%
    21:00 +1°C° 0 mm 1 mps 767 mmHg 52%
    22:00 +1°C° 0 mm 1 mps 766 mmHg 52%
    23:00 +1°C° 0 mm 1 mps 766 mmHg 53%

    Day after tomorrow, 18 November, Sunday

    Time Temperature Precipitation Wind Pressure Humidity
    00:00 +1°C° 0 mm 1 mps 765 mmHg 55%
    01:00 -1°C° 0 mm 2 mps 765 mmHg 56%
    02:00 -1°C° 0 mm 2 mps 764 mmHg 60%
    03:00 -1°C° 0 mm 2 mps 764 mmHg 63%
    04:00 -1°C° 0 mm 2 mps 763 mmHg 66%
    05:00 -1°C° 0 mm 2 mps 762 mmHg 72%
    06:00 0°C° 0 mm 3 mps 762 mmHg 77%
    07:00 0°C° 0 mm 3 mps 761 mmHg 83%
    08:00 +1°C° 0 mm 3 mps 761 mmHg 85%
    09:00 +2°C° 0 mm 3 mps 760 mmHg 87%
    10:00 +3°C° 0 mm 3 mps 760 mmHg 89%
    11:00 +3°C° 0.1 mm 3 mps 759 mmHg 87%
    12:00 +3°C° 0.1 mm 3 mps 759 mmHg 86%
    13:00 +3°C° 0.1 mm 3 mps 759 mmHg 85%
    14:00 +3°C° 0.1 mm 3 mps 758 mmHg 86%
    15:00 +3°C° 0.1 mm 4 mps 758 mmHg 87%
    16:00 +1°C° 0.1 mm 4 mps 758 mmHg 88%
    17:00 +1°C° 0 mm 4 mps 758 mmHg 88%
    18:00 +1°C° 0 mm 4 mps 757 mmHg 89%
    19:00 +1°C° 0 mm 4 mps 757 mmHg 89%
    20:00 +1°C° 0 mm 4 mps 757 mmHg 89%
    21:00 +1°C° 0 mm 4 mps 757 mmHg 90%
    22:00 +1°C° 0 mm 4 mps 756 mmHg 90%
    23:00 +1°C° 0.1 mm 5 mps 756 mmHg 88%

    19 November, Monday

    Time Temperature Precipitation Wind Pressure Humidity
    00:00 +1°C° 0.1 mm 5 mps 756 mmHg 86%
    01:00 +1°C° 0.1 mm 5 mps 756 mmHg 84%
    02:00 +1°C° 0.2 mm 5 mps 756 mmHg 83%
    03:00 0°C° 0.2 mm 5 mps 756 mmHg 82%
    04:00 0°C° 0.2 mm 5 mps 755 mmHg 81%
    05:00 0°C° 0 mm 5 mps 755 mmHg 82%
    06:00 0°C° 0 mm 5 mps 755 mmHg 82%
    07:00 0°C° 0 mm 5 mps 755 mmHg 83%
    08:00 +1°C° 0 mm 5 mps 756 mmHg 82%
    09:00 +1°C° 0 mm 5 mps 756 mmHg 81%
    10:00 +1°C° 0 mm 6 mps 756 mmHg 79%
    11:00 +2°C° 0.1 mm 5 mps 756 mmHg 79%
    12:00 +2°C° 0.1 mm 5 mps 756 mmHg 79%
    13:00 +2°C° 0.1 mm 5 mps 756 mmHg 79%
    14:00 +2°C° 0.1 mm 5 mps 755 mmHg 80%
    15:00 +2°C° 0.1 mm 5 mps 755 mmHg 81%
    16:00 +1°C° 0.1 mm 4 mps 755 mmHg 81%
    17:00 +1°C° 0.2 mm 4 mps 755 mmHg 83%
    18:00 +1°C° 0.2 mm 4 mps 755 mmHg 84%
    19:00 +1°C° 0.2 mm 4 mps 755 mmHg 85%
    20:00 +1°C° 0.1 mm 4 mps 755 mmHg 86%
    21:00 0°C° 0.1 mm 4 mps 755 mmHg 88%
    22:00 0°C° 0.1 mm 4 mps 755 mmHg 89%
    23:00 0°C° 0.1 mm 4 mps 755 mmHg 89%

    20 November, Tuesday

    Time Temperature Precipitation Wind Pressure Humidity
    00:00 +1°C° 0.1 mm 3 mps 755 mmHg 89%
    01:00 +1°C° 0.1 mm 3 mps 755 mmHg 89%
    02:00 0°C° 0 mm 3 mps 755 mmHg 89%
    03:00 0°C° 0 mm 3 mps 755 mmHg 89%
    04:00 0°C° 0 mm 3 mps 755 mmHg 89%
    05:00 0°C° 0 mm 3 mps 755 mmHg 88%
    06:00 -1°C° 0 mm 4 mps 755 mmHg 87%
    07:00 -2°C° 0 mm 4 mps 755 mmHg 86%
    08:00 -1°C° 0 mm 4 mps 755 mmHg 83%
    09:00 -1°C° 0 mm 5 mps 755 mmHg 80%
    10:00 -1°C° 0 mm 5 mps 755 mmHg 77%
    11:00 -1°C° 0 mm 5 mps 755 mmHg 75%
    12:00 -1°C° 0 mm 5 mps 755 mmHg 72%
    13:00 0°C° 0 mm 5 mps 755 mmHg 70%
    14:00 -1°C° 0 mm 4 mps 755 mmHg 72%
    15:00 -2°C° 0 mm 4 mps 755 mmHg 75%
    16:00 -3°C° 0 mm 4 mps 755 mmHg 78%
    17:00 -3°C° 0 mm 4 mps 755 mmHg 80%
    18:00 -3°C° 0 mm 4 mps 755 mmHg 81%
    19:00 -3°C° 0 mm 4 mps 755 mmHg 83%
    20:00 -2°C° 0 mm 4 mps 754 mmHg 84%
    21:00 -2°C° 0 mm 4 mps 754 mmHg 85%
    22:00 -2°C° 0 mm 4 mps 754 mmHg 86%
    23:00 -1°C° 0 mm 5 mps 754 mmHg 86%

    21 November, Wednesday

    Time Temperature Precipitation Wind Pressure Humidity
    00:00 -1°C° 0 mm 5 mps 754 mmHg 87%
    01:00 -1°C° 0 mm 5 mps 753 mmHg 87%
    02:00 -1°C° 0 mm 5 mps 753 mmHg 86%
    03:00 -2°C° 0 mm 6 mps 753 mmHg 85%
    04:00 -2°C° 0 mm 6 mps 753 mmHg 84%
    05:00 -2°C° 0 mm 6 mps 752 mmHg 83%
    06:00 -2°C° 0 mm 7 mps 752 mmHg 82%
    07:00 -2°C° 0 mm 7 mps 752 mmHg 81%
    08:00 -2°C° 0 mm 7 mps 751 mmHg 80%
    09:00 -2°C° 0 mm 7 mps 751 mmHg 79%
    10:00 -1°C° 0 mm 7 mps 751 mmHg 78%
    11:00 -1°C° 0.1 mm 8 mps 751 mmHg 78%
    12:00 -1°C° 0.1 mm 8 mps 750 mmHg 78%
    13:00 -1°C° 0.1 mm 8 mps 750 mmHg 78%
    14:00 -1°C° 0.1 mm 9 mps 750 mmHg 79%
    15:00 -1°C° 0.1 mm 9 mps 750 mmHg 79%
    16:00 -1°C° 0.1 mm 9 mps 749 mmHg 80%
    17:00 -3°C° 0.1 mm 9 mps 749 mmHg 80%
    18:00 -3°C° 0.1 mm 9 mps 749 mmHg 80%
    19:00 -3°C° 0.1 mm 9 mps 749 mmHg 80%
    20:00 -3°C° 0.1 mm 9 mps 749 mmHg 80%
    21:00 -3°C° 0.1 mm 9 mps 749 mmHg 80%
    22:00 -3°C° 0.1 mm 9 mps 749 mmHg 81%
    23:00 -3°C° 0.2 mm 9 mps 749 mmHg 81%
    Show more